contact:dominique.lefevre@mio.osupytheas.fr, maurice.libes@osupytheas.fr, didier.mallarino@osupytheas.fr
Project:EMSO http://www.emso-fr.org/EMSO-France
Depth: 2436.0 m
Title:EMSO Ligure Ouest : Data MII capteur CSTAR
DateTime,Latitude,Longitude,Instrument_Serial,Reference_Counts,Signal_Counts,Corrected_Signal_raw_counts,Calculated_Beam_c_inverse_meters,Internal_thermistor_counts
DateTime,Latitude,Longitude,Instrument_Serial,Reference_Counts,Signal_Counts,Corrected_Signal_raw_counts,Calculated_Beam_c_inverse_meters,Internal_thermistor_counts
2019-07-26T00:01:49,42.805,6.029,CST-1368DR,8533,11937,15454,0.042,551
2019-07-26T00:04:51,42.805,6.029,CST-1368DR,8533,11938,15454,0.042,551
2019-07-26T00:07:52,42.805,6.029,CST-1368DR,8533,11938,15454,0.042,550
2019-07-26T00:10:54,42.805,6.029,CST-1368DR,8533,11932,15447,0.044,551
2019-07-26T00:13:56,42.805,6.029,CST-1368DR,8532,11937,15454,0.042,551
2019-07-26T00:16:58,42.805,6.029,CST-1368DR,8532,11934,15451,0.042,551
2019-07-26T00:20:00,42.805,6.029,CST-1368DR,8532,11934,15451,0.042,551
2019-07-26T00:23:01,42.805,6.029,CST-1368DR,8533,11937,15453,0.042,551
2019-07-26T00:26:03,42.805,6.029,CST-1368DR,8533,11937,15453,0.042,551
2019-07-26T00:29:05,42.805,6.029,CST-1368DR,8532,11936,15454,0.042,551
2019-07-26T00:32:07,42.805,6.029,CST-1368DR,8532,11936,15454,0.042,550
2019-07-26T00:35:08,42.805,6.029,CST-1368DR,8532,11935,15453,0.042,551
2019-07-26T00:38:10,42.805,6.029,CST-1368DR,8532,11936,15454,0.042,550
2019-07-26T00:41:12,42.805,6.029,CST-1368DR,8532,11936,15454,0.042,551
2019-07-26T00:44:14,42.805,6.029,CST-1368DR,8532,11935,15452,0.042,551
2019-07-26T00:47:15,42.805,6.029,CST-1368DR,8532,11936,15454,0.042,551
2019-07-26T00:50:17,42.805,6.029,CST-1368DR,8532,11936,15453,0.042,551
2019-07-26T00:53:19,42.805,6.029,CST-1368DR,8532,11935,15453,0.042,551
2019-07-26T00:56:21,42.805,6.029,CST-1368DR,8532,11936,15454,0.042,551
2019-07-26T00:59:22,42.805,6.029,CST-1368DR,8532,11936,15454,0.042,550
2019-07-26T01:02:24,42.805,6.029,CST-1368DR,8532,11935,15452,0.042,551
2019-07-26T01:05:26,42.805,6.029,CST-1368DR,8532,11934,15451,0.042,551
2019-07-26T01:08:28,42.805,6.029,CST-1368DR,8532,11935,15452,0.042,551
2019-07-26T01:11:29,42.805,6.029,CST-1368DR,8532,11934,15451,0.042,550
2019-07-26T01:14:31,42.805,6.029,CST-1368DR,8532,11935,15453,0.042,551
2019-07-26T01:17:33,42.805,6.029,CST-1368DR,8532,11935,15453,0.042,551
2019-07-26T01:20:35,42.805,6.029,CST-1368DR,8532,11938,15456,0.041,551
2019-07-26T01:23:36,42.805,6.029,CST-1368DR,8532,11935,15453,0.042,551
2019-07-26T01:26:38,42.805,6.029,CST-1368DR,8532,11937,15454,0.042,551
2019-07-26T01:29:40,42.805,6.029,CST-1368DR,8532,11936,15453,0.042,551
2019-07-26T01:32:42,42.805,6.029,CST-1368DR,8532,11935,15453,0.042,551
2019-07-26T01:35:43,42.805,6.029,CST-1368DR,8532,11936,15454,0.042,551
2019-07-26T01:38:45,42.805,6.029,CST-1368DR,8532,11935,15453,0.042,551
2019-07-26T01:41:47,42.805,6.029,CST-1368DR,8532,11936,15454,0.042,551
2019-07-26T01:44:49,42.805,6.029,CST-1368DR,8532,11936,15454,0.042,551
2019-07-26T01:47:50,42.805,6.029,CST-1368DR,8532,11936,15454,0.042,551
2019-07-26T01:50:52,42.805,6.029,CST-1368DR,8532,11936,15454,0.042,551
2019-07-26T01:53:54,42.805,6.029,CST-1368DR,8532,11936,15454,0.042,551
2019-07-26T01:56:55,42.805,6.029,CST-1368DR,8532,11934,15452,0.042,550
2019-07-26T01:59:57,42.805,6.029,CST-1368DR,8532,11935,15452,0.042,550
2019-07-26T02:02:59,42.805,6.029,CST-1368DR,8532,11934,15451,0.042,551
2019-07-26T02:06:00,42.805,6.029,CST-1368DR,8532,11935,15452,0.042,551
2019-07-26T02:09:02,42.805,6.029,CST-1368DR,8531,11935,15455,0.041,550
2019-07-26T02:12:03,42.805,6.029,CST-1368DR,8531,11934,15453,0.042,551
2019-07-26T02:15:05,42.805,6.029,CST-1368DR,8531,11936,15455,0.041,551
2019-07-26T02:18:07,42.805,6.029,CST-1368DR,8531,11936,15455,0.041,550
2019-07-26T02:21:08,42.805,6.029,CST-1368DR,8531,11936,15455,0.041,551
2019-07-26T02:24:10,42.805,6.029,CST-1368DR,8531,11936,15455,0.041,551
2019-07-26T02:27:12,42.805,6.029,CST-1368DR,8531,11937,15456,0.041,550
2019-07-26T02:30:13,42.805,6.029,CST-1368DR,8531,11934,15453,0.042,551
2019-07-26T02:33:15,42.805,6.029,CST-1368DR,8531,11936,15455,0.041,551
2019-07-26T02:36:16,42.805,6.029,CST-1368DR,8531,11934,15453,0.042,551
2019-07-26T02:39:18,42.805,6.029,CST-1368DR,8531,11934,15453,0.042,551
2019-07-26T02:42:20,42.805,6.029,CST-1368DR,8531,11935,15454,0.042,551
2019-07-26T02:45:21,42.805,6.029,CST-1368DR,8531,11936,15455,0.041,550
2019-07-26T02:48:23,42.805,6.029,CST-1368DR,8531,11932,15451,0.042,551
2019-07-26T02:51:25,42.805,6.029,CST-1368DR,8531,11936,15456,0.041,551
2019-07-26T02:54:26,42.805,6.029,CST-1368DR,8531,11936,15455,0.041,551
2019-07-26T02:57:28,42.805,6.029,CST-1368DR,8531,11933,15452,0.042,551
2019-07-26T03:00:29,42.805,6.029,CST-1368DR,8531,11935,15454,0.042,551
2019-07-26T03:03:31,42.805,6.029,CST-1368DR,8531,11934,15453,0.042,551
2019-07-26T03:06:33,42.805,6.029,CST-1368DR,8531,11935,15455,0.041,551
2019-07-26T03:09:34,42.805,6.029,CST-1368DR,8531,11936,15455,0.041,551
2019-07-26T03:12:36,42.805,6.029,CST-1368DR,8531,11936,15456,0.041,551
2019-07-26T03:15:37,42.805,6.029,CST-1368DR,8531,11936,15455,0.041,551
2019-07-26T03:18:39,42.805,6.029,CST-1368DR,8531,11934,15453,0.042,551
2019-07-26T03:21:41,42.805,6.029,CST-1368DR,8531,11934,15453,0.042,550
2019-07-26T03:24:42,42.805,6.029,CST-1368DR,8531,11935,15454,0.042,551
2019-07-26T03:27:44,42.805,6.029,CST-1368DR,8531,11934,15453,0.042,551
2019-07-26T03:30:46,42.805,6.029,CST-1368DR,8531,11935,15455,0.041,551
2019-07-26T03:33:47,42.805,6.029,CST-1368DR,8531,11935,15454,0.042,551
2019-07-26T03:36:49,42.805,6.029,CST-1368DR,8531,11935,15455,0.041,551
2019-07-26T03:39:51,42.805,6.029,CST-1368DR,8531,11934,15453,0.042,551
2019-07-26T03:42:52,42.805,6.029,CST-1368DR,8531,11935,15454,0.042,551
2019-07-26T03:45:54,42.805,6.029,CST-1368DR,8531,11935,15454,0.042,551
2019-07-26T03:48:55,42.805,6.029,CST-1368DR,8530,11935,15456,0.041,551
2019-07-26T03:51:57,42.805,6.029,CST-1368DR,8530,11934,15454,0.042,551
2019-07-26T03:54:59,42.805,6.029,CST-1368DR,8530,11935,15456,0.041,551
2019-07-26T03:58:00,42.805,6.029,CST-1368DR,8530,11935,15455,0.041,551
2019-07-26T04:01:02,42.805,6.029,CST-1368DR,8530,11935,15455,0.041,551
2019-07-26T04:04:04,42.805,6.029,CST-1368DR,8530,11932,15452,0.042,551
2019-07-26T04:07:05,42.805,6.029,CST-1368DR,8530,11935,15456,0.041,551
2019-07-26T04:10:07,42.805,6.029,CST-1368DR,8530,11935,15455,0.041,551
2019-07-26T04:13:09,42.805,6.029,CST-1368DR,8530,11935,15456,0.041,551
2019-07-26T04:16:10,42.805,6.029,CST-1368DR,8530,11935,15456,0.041,550
2019-07-26T04:19:12,42.805,6.029,CST-1368DR,8530,11934,15455,0.041,551
2019-07-26T04:22:13,42.805,6.029,CST-1368DR,8530,11935,15456,0.041,551
2019-07-26T04:25:15,42.805,6.029,CST-1368DR,8530,11934,15455,0.041,551
2019-07-26T04:28:17,42.805,6.029,CST-1368DR,8530,11934,15455,0.041,551
2019-07-26T04:31:18,42.805,6.029,CST-1368DR,8530,11933,15453,0.042,551
2019-07-26T04:34:20,42.805,6.029,CST-1368DR,8530,11935,15456,0.041,551
2019-07-26T04:37:22,42.805,6.029,CST-1368DR,8530,11934,15455,0.041,551
2019-07-26T04:40:23,42.805,6.029,CST-1368DR,8530,11933,15453,0.042,551
2019-07-26T04:43:25,42.805,6.029,CST-1368DR,8530,11935,15456,0.041,551
2019-07-26T04:46:26,42.805,6.029,CST-1368DR,8530,11934,15455,0.041,551
2019-07-26T04:49:28,42.805,6.029,CST-1368DR,8530,11934,15455,0.041,551
2019-07-26T04:52:30,42.805,6.029,CST-1368DR,8530,11935,15456,0.041,551
2019-07-26T04:55:31,42.805,6.029,CST-1368DR,8530,11935,15455,0.041,550
2019-07-26T04:58:33,42.805,6.029,CST-1368DR,8530,11934,15455,0.041,551
2019-07-26T05:01:35,42.805,6.029,CST-1368DR,8530,11934,15454,0.042,551
2019-07-26T05:04:36,42.805,6.029,CST-1368DR,8530,11935,15455,0.041,551
2019-07-26T05:07:38,42.805,6.029,CST-1368DR,8530,11934,15455,0.041,551
2019-07-26T05:10:39,42.805,6.029,CST-1368DR,8530,11934,15455,0.041,551
2019-07-26T05:13:41,42.805,6.029,CST-1368DR,8530,11934,15455,0.041,551
2019-07-26T05:16:43,42.805,6.029,CST-1368DR,8530,11934,15455,0.041,550
2019-07-26T05:19:44,42.805,6.029,CST-1368DR,8530,11935,15456,0.041,550
2019-07-26T05:22:46,42.805,6.029,CST-1368DR,8530,11935,15455,0.041,551
2019-07-26T05:25:48,42.805,6.029,CST-1368DR,8530,11934,15455,0.041,551
2019-07-26T05:28:49,42.805,6.029,CST-1368DR,8530,11935,15456,0.041,551
2019-07-26T05:31:51,42.805,6.029,CST-1368DR,8530,11934,15455,0.041,551
2019-07-26T05:34:52,42.805,6.029,CST-1368DR,8530,11934,15455,0.041,550
2019-07-26T05:37:54,42.805,6.029,CST-1368DR,8530,11934,15455,0.041,551
2019-07-26T05:40:56,42.805,6.029,CST-1368DR,8530,11935,15455,0.041,550
2019-07-26T05:43:57,42.805,6.029,CST-1368DR,8530,11935,15455,0.041,551
2019-07-26T05:46:59,42.805,6.029,CST-1368DR,8530,11934,15455,0.041,551
2019-07-26T05:50:01,42.805,6.029,CST-1368DR,8530,11935,15456,0.041,551
2019-07-26T05:53:02,42.805,6.029,CST-1368DR,8530,11934,15454,0.042,551
2019-07-26T05:56:04,42.805,6.029,CST-1368DR,8530,11933,15453,0.042,551
2019-07-26T05:59:05,42.805,6.029,CST-1368DR,8530,11935,15456,0.041,551
2019-07-26T06:02:07,42.805,6.029,CST-1368DR,8529,11934,15456,0.041,551
2019-07-26T06:05:09,42.805,6.029,CST-1368DR,8530,11934,15455,0.041,551
2019-07-26T06:08:10,42.805,6.029,CST-1368DR,8530,11934,15455,0.041,551
2019-07-26T06:11:12,42.805,6.029,CST-1368DR,8529,11933,15455,0.041,551
2019-07-26T06:14:14,42.805,6.029,CST-1368DR,8529,11934,15456,0.041,551
2019-07-26T06:17:15,42.805,6.029,CST-1368DR,8529,11934,15456,0.041,551
2019-07-26T06:20:17,42.805,6.029,CST-1368DR,8529,11935,15457,0.041,551
2019-07-26T06:23:18,42.805,6.029,CST-1368DR,8529,11934,15456,0.041,550
2019-07-26T06:26:20,42.805,6.029,CST-1368DR,8529,11933,15455,0.041,551
2019-07-26T06:29:22,42.805,6.029,CST-1368DR,8529,11932,15454,0.042,551
2019-07-26T06:32:23,42.805,6.029,CST-1368DR,8529,11935,15457,0.041,551
2019-07-26T06:35:25,42.805,6.029,CST-1368DR,8529,11933,15454,0.042,551
2019-07-26T06:38:27,42.805,6.029,CST-1368DR,8529,11933,15455,0.041,551
2019-07-26T06:41:28,42.805,6.029,CST-1368DR,8529,11934,15457,0.041,551
2019-07-26T06:44:30,42.805,6.029,CST-1368DR,8529,11933,15455,0.041,551
2019-07-26T06:47:31,42.805,6.029,CST-1368DR,8529,11933,15455,0.041,551
2019-07-26T06:50:33,42.805,6.029,CST-1368DR,8529,11933,15454,0.042,551
2019-07-26T06:53:35,42.805,6.029,CST-1368DR,8529,11935,15457,0.041,551
2019-07-26T06:56:36,42.805,6.029,CST-1368DR,8529,11934,15456,0.041,551
2019-07-26T06:59:38,42.805,6.029,CST-1368DR,8529,11933,15455,0.041,551
2019-07-26T07:02:40,42.805,6.029,CST-1368DR,8529,11933,15455,0.041,551
2019-07-26T07:05:41,42.805,6.029,CST-1368DR,8529,11934,15456,0.041,551
2019-07-26T07:08:43,42.805,6.029,CST-1368DR,8529,11933,15455,0.041,551
2019-07-26T07:11:44,42.805,6.029,CST-1368DR,8529,11933,15455,0.041,551
2019-07-26T07:14:46,42.805,6.029,CST-1368DR,8529,11934,15456,0.041,551
2019-07-26T07:17:48,42.805,6.029,CST-1368DR,8529,11933,15455,0.041,551
2019-07-26T07:20:49,42.805,6.029,CST-1368DR,8529,11933,15455,0.041,551
2019-07-26T07:23:51,42.805,6.029,CST-1368DR,8529,11933,15454,0.042,551
2019-07-26T07:26:53,42.805,6.029,CST-1368DR,8529,11932,15454,0.042,551
2019-07-26T07:29:54,42.805,6.029,CST-1368DR,8529,11932,15453,0.042,551
2019-07-26T07:32:56,42.805,6.029,CST-1368DR,8529,11930,15450,0.043,551
2019-07-26T07:35:57,42.805,6.029,CST-1368DR,8529,11932,15454,0.042,551
2019-07-26T07:38:59,42.805,6.029,CST-1368DR,8529,11932,15454,0.042,551
2019-07-26T07:42:01,42.805,6.029,CST-1368DR,8529,11932,15453,0.042,551
2019-07-26T07:45:02,42.805,6.029,CST-1368DR,8529,11932,15453,0.042,551
2019-07-26T07:48:04,42.805,6.029,CST-1368DR,8529,11932,15454,0.042,551
2019-07-26T07:51:06,42.805,6.029,CST-1368DR,8528,11932,15455,0.041,551
2019-07-26T07:54:07,42.805,6.029,CST-1368DR,8528,11932,15455,0.041,551
2019-07-26T07:57:09,42.805,6.029,CST-1368DR,8529,11932,15454,0.042,551
2019-07-26T08:00:10,42.805,6.029,CST-1368DR,8529,11932,15453,0.042,551
2019-07-26T08:03:12,42.805,6.029,CST-1368DR,8528,11931,15454,0.042,551
2019-07-26T08:06:14,42.805,6.029,CST-1368DR,8528,11932,15455,0.041,550
2019-07-26T08:09:15,42.805,6.029,CST-1368DR,8528,11930,15453,0.042,551
2019-07-26T08:12:17,42.805,6.029,CST-1368DR,8528,11931,15454,0.042,551
2019-07-26T08:15:19,42.805,6.029,CST-1368DR,8528,11930,15452,0.042,551
2019-07-26T08:18:20,42.805,6.029,CST-1368DR,8528,11932,15455,0.041,551
2019-07-26T08:21:22,42.805,6.029,CST-1368DR,8528,11931,15454,0.042,551
2019-07-26T08:24:24,42.805,6.029,CST-1368DR,8528,11929,15451,0.042,551
2019-07-26T08:27:26,42.805,6.029,CST-1368DR,8528,11932,15455,0.041,551
2019-07-26T08:30:27,42.805,6.029,CST-1368DR,8528,11932,15456,0.041,551
2019-07-26T08:33:29,42.805,6.029,CST-1368DR,8528,11930,15452,0.042,550
2019-07-26T08:36:31,42.805,6.029,CST-1368DR,8528,11931,15454,0.042,550
2019-07-26T08:39:32,42.805,6.029,CST-1368DR,8528,11932,15455,0.041,551
2019-07-26T08:42:34,42.805,6.029,CST-1368DR,8528,11931,15454,0.042,551
2019-07-26T08:45:35,42.805,6.029,CST-1368DR,8528,11931,15454,0.042,551
2019-07-26T08:48:37,42.805,6.029,CST-1368DR,8528,11931,15454,0.042,551
2019-07-26T08:51:39,42.805,6.029,CST-1368DR,8528,11931,15454,0.042,551
2019-07-26T08:54:40,42.805,6.029,CST-1368DR,8528,11932,15455,0.041,551
2019-07-26T08:57:42,42.805,6.029,CST-1368DR,8528,11931,15454,0.042,551
2019-07-26T09:00:44,42.805,6.029,CST-1368DR,8528,11931,15454,0.042,551
2019-07-26T09:03:45,42.805,6.029,CST-1368DR,8528,11932,15455,0.041,551
2019-07-26T09:06:47,42.805,6.029,CST-1368DR,8528,11930,15452,0.042,551
2019-07-26T09:09:49,42.805,6.029,CST-1368DR,8528,11932,15455,0.041,551
2019-07-26T09:12:50,42.805,6.029,CST-1368DR,8528,11931,15454,0.042,551
2019-07-26T09:15:52,42.805,6.029,CST-1368DR,8528,11931,15454,0.042,551
2019-07-26T09:18:53,42.805,6.029,CST-1368DR,8528,11931,15454,0.042,551
2019-07-26T09:21:55,42.805,6.029,CST-1368DR,8528,11932,15455,0.041,551
2019-07-26T09:24:57,42.805,6.029,CST-1368DR,8528,11930,15453,0.042,551
2019-07-26T09:27:58,42.805,6.029,CST-1368DR,8528,11931,15454,0.042,551
2019-07-26T09:31:00,42.805,6.029,CST-1368DR,8528,11930,15452,0.042,551
2019-07-26T09:34:02,42.805,6.029,CST-1368DR,8528,11929,15452,0.042,550
2019-07-26T09:37:03,42.805,6.029,CST-1368DR,8528,11931,15454,0.042,550
2019-07-26T09:40:05,42.805,6.029,CST-1368DR,8528,11931,15454,0.042,551
2019-07-26T09:43:07,42.805,6.029,CST-1368DR,8528,11930,15453,0.042,551
2019-07-26T09:46:08,42.805,6.029,CST-1368DR,8528,11929,15451,0.042,551
2019-07-26T09:49:10,42.805,6.029,CST-1368DR,8528,11929,15452,0.042,551
2019-07-26T09:52:11,42.805,6.029,CST-1368DR,8528,11930,15453,0.042,551
2019-07-26T09:55:13,42.805,6.029,CST-1368DR,8528,11931,15453,0.042,551
2019-07-26T09:58:15,42.805,6.029,CST-1368DR,8528,11931,15453,0.042,551
2019-07-26T10:01:16,42.805,6.029,CST-1368DR,8528,11931,15454,0.042,551
2019-07-26T10:04:18,42.805,6.029,CST-1368DR,8528,11929,15452,0.042,551
2019-07-26T10:07:20,42.805,6.029,CST-1368DR,8527,11929,15453,0.042,551
2019-07-26T10:10:21,42.805,6.029,CST-1368DR,8527,11929,15453,0.042,551
2019-07-26T10:13:23,42.805,6.029,CST-1368DR,8527,11921,15443,0.045,550
2019-07-26T10:16:25,42.805,6.029,CST-1368DR,8527,11928,15452,0.042,551
2019-07-26T10:19:26,42.805,6.029,CST-1368DR,8527,11930,15455,0.041,551
2019-07-26T10:22:28,42.805,6.029,CST-1368DR,8527,11931,15455,0.041,551
2019-07-26T10:25:29,42.805,6.029,CST-1368DR,8527,11930,15454,0.042,551
2019-07-26T10:28:31,42.805,6.029,CST-1368DR,8527,11929,15453,0.042,551
2019-07-26T10:31:33,42.805,6.029,CST-1368DR,8527,11929,15453,0.042,551
2019-07-26T10:34:34,42.805,6.029,CST-1368DR,8527,11929,15453,0.042,551
2019-07-26T10:37:36,42.805,6.029,CST-1368DR,8527,11930,15454,0.042,551
2019-07-26T10:40:38,42.805,6.029,CST-1368DR,8527,11929,15453,0.042,551
2019-07-26T10:43:39,42.805,6.029,CST-1368DR,8527,11929,15453,0.042,551
2019-07-26T10:46:41,42.805,6.029,CST-1368DR,8527,11929,15453,0.042,551
2019-07-26T10:49:43,42.805,6.029,CST-1368DR,8527,11928,15452,0.042,551
2019-07-26T10:52:44,42.805,6.029,CST-1368DR,8527,11928,15452,0.042,551
2019-07-26T10:55:46,42.805,6.029,CST-1368DR,8527,11925,15448,0.043,550
2019-07-26T10:58:48,42.805,6.029,CST-1368DR,8527,11929,15453,0.042,551
2019-07-26T11:01:49,42.805,6.029,CST-1368DR,8527,11928,15452,0.042,551
2019-07-26T11:04:51,42.805,6.029,CST-1368DR,8527,11929,15453,0.042,550
2019-07-26T11:07:53,42.805,6.029,CST-1368DR,8527,11929,15453,0.042,551
2019-07-26T11:10:54,42.805,6.029,CST-1368DR,8527,11928,15452,0.042,551
2019-07-26T11:13:56,42.805,6.029,CST-1368DR,8527,11929,15452,0.042,551
2019-07-26T11:16:57,42.805,6.029,CST-1368DR,8527,11928,15452,0.042,551
2019-07-26T11:19:59,42.805,6.029,CST-1368DR,8527,11928,15452,0.042,551
2019-07-26T11:23:01,42.805,6.029,CST-1368DR,8527,11927,15450,0.043,551
2019-07-26T11:26:02,42.805,6.029,CST-1368DR,8527,11928,15452,0.042,550
2019-07-26T11:29:04,42.805,6.029,CST-1368DR,8527,11927,15450,0.043,551
2019-07-26T11:32:06,42.805,6.029,CST-1368DR,8527,11928,15451,0.042,551
2019-07-26T11:35:07,42.805,6.029,CST-1368DR,8527,11929,15452,0.042,551
2019-07-26T11:38:09,42.805,6.029,CST-1368DR,8527,11929,15453,0.042,551
2019-07-26T11:41:11,42.805,6.029,CST-1368DR,8527,11928,15452,0.042,551
2019-07-26T11:44:12,42.805,6.029,CST-1368DR,8527,11929,15453,0.042,551
2019-07-26T11:47:14,42.805,6.029,CST-1368DR,8527,11928,15452,0.042,551
2019-07-26T11:50:15,42.805,6.029,CST-1368DR,8527,11927,15451,0.042,551
2019-07-26T11:53:17,42.805,6.029,CST-1368DR,8527,11928,15452,0.042,551
2019-07-26T11:56:19,42.805,6.029,CST-1368DR,8526,11929,15454,0.042,551
2019-07-26T11:59:20,42.805,6.029,CST-1368DR,8527,11928,15452,0.042,551
2019-07-26T12:02:22,42.805,6.029,CST-1368DR,8526,11928,15453,0.042,551
2019-07-26T12:05:24,42.805,6.029,CST-1368DR,8526,11928,15453,0.042,550
2019-07-26T12:08:25,42.805,6.029,CST-1368DR,8526,11928,15453,0.042,551
2019-07-26T12:11:27,42.805,6.029,CST-1368DR,8526,11927,15452,0.042,551
2019-07-26T12:14:28,42.805,6.029,CST-1368DR,8526,11928,15453,0.042,551
2019-07-26T12:17:30,42.805,6.029,CST-1368DR,8526,11926,15451,0.042,551
2019-07-26T12:20:32,42.805,6.029,CST-1368DR,8526,11926,15451,0.042,551
2019-07-26T12:23:33,42.805,6.029,CST-1368DR,8526,11928,15453,0.042,551
2019-07-26T12:26:35,42.805,6.029,CST-1368DR,8526,11927,15452,0.042,551
2019-07-26T12:29:37,42.805,6.029,CST-1368DR,8526,11928,15454,0.042,551
2019-07-26T12:32:38,42.805,6.029,CST-1368DR,8526,11928,15454,0.042,551
2019-07-26T12:35:40,42.805,6.029,CST-1368DR,8526,11928,15454,0.042,551
2019-07-26T12:38:41,42.805,6.029,CST-1368DR,8526,11928,15453,0.042,551
2019-07-26T12:41:43,42.805,6.029,CST-1368DR,8526,11929,15454,0.042,551
2019-07-26T12:44:45,42.805,6.029,CST-1368DR,8526,11928,15454,0.042,551
2019-07-26T12:47:46,42.805,6.029,CST-1368DR,8526,11926,15450,0.043,551
2019-07-26T12:50:48,42.805,6.029,CST-1368DR,8526,11928,15453,0.042,551
2019-07-26T12:53:50,42.805,6.029,CST-1368DR,8526,11928,15454,0.042,551
2019-07-26T12:56:51,42.805,6.029,CST-1368DR,8526,11929,15455,0.041,551
2019-07-26T12:59:53,42.805,6.029,CST-1368DR,8526,11928,15453,0.042,551
2019-07-26T13:02:55,42.805,6.029,CST-1368DR,8526,11928,15453,0.042,551
2019-07-26T13:05:56,42.805,6.029,CST-1368DR,8526,11927,15453,0.042,551
2019-07-26T13:08:58,42.805,6.029,CST-1368DR,8526,11927,15453,0.042,551
2019-07-26T13:11:59,42.805,6.029,CST-1368DR,8526,11926,15451,0.042,551
2019-07-26T13:15:01,42.805,6.029,CST-1368DR,8526,11928,15454,0.042,551
2019-07-26T13:18:03,42.805,6.029,CST-1368DR,8526,11926,15451,0.042,551
2019-07-26T13:21:04,42.805,6.029,CST-1368DR,8526,11926,15451,0.042,551
2019-07-26T13:24:06,42.805,6.029,CST-1368DR,8526,11927,15453,0.042,551
2019-07-26T13:27:08,42.805,6.029,CST-1368DR,8526,11928,15453,0.042,551
2019-07-26T13:30:09,42.805,6.029,CST-1368DR,8526,11928,15453,0.042,551
2019-07-26T13:33:11,42.805,6.029,CST-1368DR,8526,11926,15451,0.042,551
2019-07-26T13:36:12,42.805,6.029,CST-1368DR,8526,11928,15453,0.042,551
2019-07-26T13:39:14,42.805,6.029,CST-1368DR,8526,11926,15451,0.042,551
2019-07-26T13:42:16,42.805,6.029,CST-1368DR,8526,11927,15452,0.042,551
2019-07-26T13:45:17,42.805,6.029,CST-1368DR,8525,11927,15454,0.042,551
2019-07-26T13:48:19,42.805,6.029,CST-1368DR,8526,11928,15453,0.042,551
2019-07-26T13:51:21,42.805,6.029,CST-1368DR,8525,11926,15453,0.042,551
2019-07-26T13:54:22,42.805,6.029,CST-1368DR,8525,11927,15454,0.042,551
2019-07-26T13:57:25,42.805,6.029,CST-1368DR,8525,11927,15454,0.042,551
2019-07-26T14:00:26,42.805,6.029,CST-1368DR,8525,11927,15454,0.042,551
2019-07-26T14:03:28,42.805,6.029,CST-1368DR,8525,11927,15454,0.042,551
2019-07-26T14:06:30,42.805,6.029,CST-1368DR,8525,11927,15454,0.042,551
2019-07-26T14:09:31,42.805,6.029,CST-1368DR,8525,11928,15455,0.041,551
2019-07-26T14:12:33,42.805,6.029,CST-1368DR,8525,11927,15454,0.042,551
2019-07-26T14:15:35,42.805,6.029,CST-1368DR,8525,11927,15454,0.042,551
2019-07-26T14:18:36,42.805,6.029,CST-1368DR,8525,11927,15454,0.042,551
2019-07-26T14:21:38,42.805,6.029,CST-1368DR,8525,11927,15454,0.042,551
2019-07-26T14:24:39,42.805,6.029,CST-1368DR,8525,11926,15453,0.042,551
2019-07-26T14:27:41,42.805,6.029,CST-1368DR,8525,11926,15452,0.042,551
2019-07-26T14:30:43,42.805,6.029,CST-1368DR,8525,11926,15452,0.042,551
2019-07-26T14:33:45,42.805,6.029,CST-1368DR,8525,11924,15450,0.043,551
2019-07-26T14:36:46,42.805,6.029,CST-1368DR,8525,11926,15453,0.042,551
2019-07-26T14:39:48,42.805,6.029,CST-1368DR,8525,11926,15453,0.042,551
2019-07-26T14:42:49,42.805,6.029,CST-1368DR,8525,11925,15452,0.042,550
2019-07-26T14:45:51,42.805,6.029,CST-1368DR,8525,11926,15453,0.042,551
2019-07-26T14:48:53,42.805,6.029,CST-1368DR,8525,11927,15454,0.042,551
2019-07-26T14:51:54,42.805,6.029,CST-1368DR,8525,11926,15453,0.042,551
2019-07-26T14:54:56,42.805,6.029,CST-1368DR,8525,11926,15453,0.042,551
2019-07-26T14:57:58,42.805,6.029,CST-1368DR,8525,11925,15451,0.042,551
2019-07-26T15:00:59,42.805,6.029,CST-1368DR,8525,11926,15453,0.042,551
2019-07-26T15:04:01,42.805,6.029,CST-1368DR,8525,11926,15452,0.042,551
2019-07-26T15:07:03,42.805,6.029,CST-1368DR,8525,11925,15451,0.042,551
2019-07-26T15:10:04,42.805,6.029,CST-1368DR,8525,11925,15451,0.042,551
2019-07-26T15:13:06,42.805,6.029,CST-1368DR,8525,11927,15454,0.042,551
2019-07-26T15:16:07,42.805,6.029,CST-1368DR,8525,11927,15454,0.042,551
2019-07-26T15:19:09,42.805,6.029,CST-1368DR,8525,11926,15452,0.042,551
2019-07-26T15:22:11,42.805,6.029,CST-1368DR,8525,11926,15452,0.042,551
2019-07-26T15:25:12,42.805,6.029,CST-1368DR,8525,11925,15451,0.042,550
2019-07-26T15:28:14,42.805,6.029,CST-1368DR,8525,11925,15451,0.042,551
2019-07-26T15:31:16,42.805,6.029,CST-1368DR,8525,11926,15453,0.042,550
2019-07-26T15:34:17,42.805,6.029,CST-1368DR,8525,11925,15451,0.042,551
2019-07-26T15:37:19,42.805,6.029,CST-1368DR,8525,11926,15453,0.042,551
2019-07-26T15:40:21,42.805,6.029,CST-1368DR,8525,11926,15452,0.042,551
2019-07-26T15:43:22,42.805,6.029,CST-1368DR,8525,11926,15452,0.042,551
2019-07-26T15:46:24,42.805,6.029,CST-1368DR,8524,11925,15453,0.042,551
2019-07-26T15:49:26,42.805,6.029,CST-1368DR,8525,11926,15453,0.042,551
2019-07-26T15:52:27,42.805,6.029,CST-1368DR,8525,11927,15454,0.042,551
2019-07-26T15:55:29,42.805,6.029,CST-1368DR,8524,11926,15455,0.041,551
2019-07-26T15:58:31,42.805,6.029,CST-1368DR,8524,11926,15455,0.041,551
2019-07-26T16:01:32,42.805,6.029,CST-1368DR,8524,11926,15454,0.042,551
2019-07-26T16:04:34,42.805,6.029,CST-1368DR,8524,11925,15452,0.042,551
2019-07-26T16:07:36,42.805,6.029,CST-1368DR,8524,11924,15452,0.042,551
2019-07-26T16:10:37,42.805,6.029,CST-1368DR,8524,11926,15454,0.042,551
2019-07-26T16:13:39,42.805,6.029,CST-1368DR,8524,11926,15454,0.042,551
2019-07-26T16:16:41,42.805,6.029,CST-1368DR,8524,11925,15453,0.042,551
2019-07-26T16:19:42,42.805,6.029,CST-1368DR,8524,11926,15454,0.042,551
2019-07-26T16:22:44,42.805,6.029,CST-1368DR,8524,11925,15453,0.042,551
2019-07-26T16:25:46,42.805,6.029,CST-1368DR,8524,11926,15454,0.042,551
2019-07-26T16:28:47,42.805,6.029,CST-1368DR,8524,11926,15454,0.042,551
2019-07-26T16:31:49,42.805,6.029,CST-1368DR,8524,11926,15454,0.042,551
2019-07-26T16:34:51,42.805,6.029,CST-1368DR,8524,11926,15454,0.042,551
2019-07-26T16:37:52,42.805,6.029,CST-1368DR,8524,11925,15453,0.042,551